Weather History for KXNA - January, 2013

Change the Weather History Date:

Thursday, January 31, 2013

  Actual Average Record
Temperature  
Mean Temperature 32 °F -  
Max Temperature 46 °F - - ()
Min Temperature 19 °F - - ()
Degree Days  
Heating Degree Days 32    
Moisture  
Dew Point 21 °F    
Average Humidity 73    
Maximum Humidity 96    
Minimum Humidity 46    
Precipitation  
Precipitation 0.00 in - - ()
Sea Level Pressure  
Sea Level Pressure 30.18 in    
Wind  
Wind Speed 8 mph (WNW)    
Max Wind Speed 21 mph    
Max Gust Speed 22 mph    
Visibility 10 miles    
Events      
T = Trace of Precipitation, MM = Missing Value Source: NWS Daily Summary

Daily Weather History Graph

Daily Weather History Graph

Search for Another Location

Airport or City:

Trip Planner

Search our weather history database for the weather conditions in past years. The results will help you decide how hot, cold, wet, or windy it might be!

Date:

Astronomy

Jan. 31, 2013 Rise Set
Actual Time 7:18 AM CST 5:42 PM CST
Civil Twilight 6:51 AM CST 6:10 PM CST
Nautical Twilight 6:21 AM CST 6:40 PM CST
Astronomical Twilight 5:50 AM CST 7:11 PM CST
Moon 10:35 PM CST (1/31) 9:28 AM CST (1/31)
Length of Visible Light 11h 18m
Length of Day
10h 24m
Waning Gibbous, 79% of the Moon is Illuminated
Jan 31
Waning Gibbous
Feb 3
Last Quarter
Feb 10
New
Feb 17
First Quarter
Feb 25
Full

Hourly Weather History & Observations

Time (CST) Temp. Windchill Dew Point Humidity Pressure Visibility Wind Dir Wind Speed Gust Speed Precip Events Conditions
12:53 AM 21.0 °F 13.4 °F 19.0 °F 92% 30.07 in 10.0 mi SSW 5.8 mph - N/A   Clear
1:53 AM 21.9 °F 17.2 °F 19.9 °F 92% 30.06 in 10.0 mi SSW 3.5 mph - N/A   Clear
2:53 AM 21.0 °F 16.2 °F 19.9 °F 96% 30.04 in 10.0 mi South 3.5 mph - N/A   Clear
3:53 AM 21.9 °F 15.7 °F 19.9 °F 92% 30.04 in 10.0 mi SSW 4.6 mph - N/A   Clear
4:53 AM 21.0 °F 14.6 °F 19.9 °F 96% 30.04 in 10.0 mi SSW 4.6 mph - N/A   Clear
5:53 AM 21.0 °F 13.4 °F 19.0 °F 92% 30.04 in 10.0 mi SSW 5.8 mph - N/A   Clear
6:53 AM 21.9 °F 14.5 °F 19.9 °F 92% 30.04 in 10.0 mi SSW 5.8 mph - N/A   Clear
7:53 AM 28.0 °F 19.3 °F 21.9 °F 78% 30.06 in 10.0 mi SW 9.2 mph - N/A   Clear
9:53 AM 37.0 °F 29.3 °F 25.0 °F 62% 30.11 in 10.0 mi WSW 11.5 mph - N/A   Clear
10:53 AM 41.0 °F 34.7 °F 25.0 °F 53% 30.13 in 10.0 mi West 10.4 mph - N/A   Partly Cloudy
11:53 AM 45.0 °F 39.7 °F 27.0 °F 49% 30.14 in 10.0 mi West 10.4 mph - N/A   Partly Cloudy
12:53 PM 46.9 °F - 27.0 °F 46% 30.13 in 10.0 mi NW 13.8 mph 19.6 mph N/A   Clear
1:53 PM 44.1 °F 36.5 °F 27.0 °F 51% 30.14 in 10.0 mi NNW 17.3 mph 21.9 mph N/A   Partly Cloudy
2:53 PM 41.0 °F 33.1 °F 26.1 °F 55% 30.18 in 10.0 mi NNW 15.0 mph - N/A   Mostly Cloudy
3:53 PM 37.0 °F 28.5 °F 25.0 °F 62% 30.23 in 10.0 mi NNW 13.8 mph 21.9 mph N/A   Overcast
4:53 PM 32.0 °F 19.8 °F 23.0 °F 69% 30.27 in 10.0 mi North 20.7 mph - N/A   Overcast
5:53 PM 28.0 °F 19.3 °F 25.0 °F 88% 30.31 in 10.0 mi North 9.2 mph - N/A   Overcast
6:53 PM 26.1 °F 14.5 °F 17.1 °F 69% 30.34 in 10.0 mi North 13.8 mph - N/A   Mostly Cloudy
7:53 PM 23.0 °F 12.4 °F 12.0 °F 63% 30.39 in 10.0 mi NNW 10.4 mph - N/A   Clear
8:53 PM 21.9 °F 11.0 °F 12.0 °F 66% 30.42 in 10.0 mi North 10.4 mph - N/A   Clear
9:53 PM 19.9 °F 10.1 °F 14.0 °F 78% 30.44 in 10.0 mi NNW 8.1 mph - N/A   Clear
10:53 PM 19.0 °F 11.1 °F 10.0 °F 68% 30.44 in 10.0 mi NNW 5.8 mph - N/A   Clear